Location: Arthez
(43.0833°N, 0.2500°W)
Time: 22:09:32
(UTC+00:00)

Cosmos 2322 Rocket - Pass Details

Date: 23 October 2021
Orbit: 832 x 852 km, 71.0° (Epoch: 06 December)

Event Time Altitude Azimuth Distance (km) Brightness Sun altitude
Rises 20:01:44 0° 246° (WSW) 3,368 6.0 -32.7°
Reaches altitude 10° 20:04:46 10° 262° (W) 2,439 5.3 -33.2°
Maximum altitude 20:08:57 21° 310° (NW) 1,783 4.4 -33.9°
Drops below altitude 10° 20:13:10 10° 359° (N) 2,454 4.8 -34.7°
Enters shadow 20:14:16 - 6° (N) 2,771 5.0 -34.9°
